Location: St. Louis
(38.6270°N, 90.1994°W)
Time: 05:06:16
(UTC-06:00)

Vanguard 2 - Pass Details

Date: 05 December 2021
Orbit: 553 x 2936 km, 32.9° (Epoch: 19 January)

Event Time Altitude Azimuth Distance (km) Brightness Sun altitude
Rises 18:36:02 0° 268° (W) 4,076 12.7 -22.2°
Reaches altitude 10° 18:39:07 10° 254° (WSW) 3,434 12.0 -22.8°
Maximum altitude 18:45:59 24° 204° (SSW) 3,141 10.9 -24.1°
Drops below altitude 10° 18:55:33 10° 159° (SSE) 4,925 11.5 -25.9°
Sets 19:01:13 0° 147° (SSE) 6,299 12.0 -27.0°
